9hSports utilise des cookies afin d'améliorer votre expérience clients ainsi que son service, en analysant la navigation sur le site. En continuant sur ce site vous acceptez cette utilisation. Pour plus de renseignements consultez notre Politique de cookies. OK

En live: Puiggraciós Xrace 32K

Puiggraciós Xrace 32K

Arribada - Arribada


9
En attente

52
Ont passé

Hommes

# - Posició P.C. - Participant Temps Dorsal

1 - 1 - PAKITO PÉREZ BERDUGO 03:07:23 404

2 - 2 - JORDI ALEMANY QUINTANA 03:17:45 429

3 - 3 - JOSEP FABRéS ANGLí 03:20:18 466

4 - 4 - JORDI URREA SALA 03:21:34 456

5 - 5 - RAMON COROMINAS SANTANACH 03:22:28 448

6 - 6 - ANTONIO DE ARRIBA CEJUDO 03:26:21 463

7 - 7 - ENRIC GONZALEZ LOPERA 03:28:12 442

8 - 8 - MANUEL PLAZA SIERRA 03:34:13 446

9 - 9 - CARLOS BONET PEREZ 03:34:36 416

10 - 10 - MANEL BEGARA SERRANDO 03:37:46 460

11 - 11 - MANEL ROMERO PEREZ 03:37:49 445

12 - 12 - MIQUEL MULERO I SOTELO 03:38:02 443

13 - 13 - ORIOL SOLANAS ROMERO 03:40:25 422

14 - 14 - BERNAT CABALLERO HERNANDEZ 03:41:21 433

15 - 15 - JUAN CARLOS VINUESA COTORE 03:43:49 421

16 - 16 - RUBEN RUIZ GARCIA 03:48:09 441

17 - 17 - ALBERT ALFARO URBANO 03:52:17 426

18 - 18 - MIQUEL SALINAS SALVà 03:52:17 425

19 - 19 - CARLOS CARRILLO CARRASCO 03:56:07 411

20 - 20 - ISRAEL SERRA MARTIN 04:00:00 420

21 - 21 - FERNANDO BARCOS NAVARRO 04:00:01 423

22 - 22 - PERE JOAN SERRA FERRER 04:03:25 464

23 - 23 - SANTI LOZANO SALA 04:05:26 424

24 - 24 - JOSE DIAZ CANOVAS 04:08:23 434

25 - 25 - JOAN GIMENO BARRIOS 04:08:33 428

26 - 26 - GABRIEL PARRA GALAN 04:08:36 450

27 - 28 - JOAN GARRIGA FERRER 04:11:37 427

28 - 30 - MARC ARTIGAS ROIG 04:17:49 419

29 - 31 - GERMAN BORREGO 04:21:18 406

30 - 32 - CARLOS SEGURA MORALES 04:22:17 440

31 - 33 - JOSE BUENO MOLINA 04:22:18 439

32 - 34 - TONI PORRAS JIMENEZ 04:23:46 408

33 - 35 - PEPE PORRAS JIMENEZ 04:23:47 407

34 - 36 - JORDI CASTANY EGEA 04:24:00 453

35 - 38 - ENRIC SISA MATAS 04:24:10 467

36 - 39 - MARIO RODRIGUEZ BRITO 04:25:02 417

37 - 41 - OLEGUER MASPONTS HOSPITAL 04:29:26 465

38 - 43 - JAIME CARRASCO 04:39:01 410

39 - 44 - SANTI BARRIL 04:43:13 468

40 - 45 - SERGI FARRO SOLER 04:43:15 469

41 - 47 - MATIAS AYUSO MARTINEZ 04:46:17 451

42 - 48 - GINES MARTINEZ RODRIGUEZ 04:53:45 415

43 - 49 - SERGIO FERNADEZ FIERRO 04:53:48 414

44 - 50 - FRANCESC COMPANY VENDRELL 04:54:49 455

45 - 51 - JASON TOLVE 05:09:28 409

46 - 52 - JAUME SOLER LUQUE 05:34:00 400

Femmes

# - Posició P.C. - Participant Temps Dorsal

1 - 27 - CRISTINA MARTINEZ CABEZUELO 04:08:37 435

2 - 29 - BERTA RODRIGUEZ BRACHD 04:16:34 458

3 - 37 - ESTHER CASAS SALLÉS 04:24:01 454

4 - 40 - MARTA CASADO COLOMER 04:26:40 449

5 - 42 - MARIBEL ESCOBAR CAñAMAQUE 04:32:10 437

6 - 46 - ESTHER JO BASQUENS 04:46:17 452

Publicité